Weather Roundup
Issued by NWS

Home | Current Version | Previous Version | Text Only | Print | Product List | Glossary On
Versions: 1 2 3 4 5 6 7 8 9 10 11 12 13 14 15 16 17 18 19 20 21 22 23 24 25 26 27 28 29 30 31 32 33 34 35 36 37 38 39 40 41 42 43 44 45 46 47 48 49 50
000
NZUS93 KARX 310359
HRRWXR

CURRENT HOURLY OBSERVATIONS ACROSS
MUCH OF THE UPPER MISSISSIPPI VALLEY
NATIONAL WEATHER SERVICE LA CROSSE WI
1000 PM CST FRI JAN 30 2015


...SOUTHEAST MINNESOTA...


CITY           SKY/WX    TMP DP  RH WIND       PRES   REMARKS
ROCHESTER      CLEAR     20  13  74 S14       30.21F WCI   7
ROCHESTER/MAYO FAIR      24  13  65 S13       30.22F WCI  12
WINONA         MOCLDY    23  12  63 CALM      30.27S
AUSTIN         CLEAR     21  18  86 S8        30.23F WCI  12
ALBERT LEA     CLEAR     27  19  74 S6        30.22F WCI  20
DODGE CENTER   PTCLDY    25  19  80 S15       30.19F WCI  12
PRESTON        CLEAR     21  13  70 S13       30.24S WCI   9
OWATONNA       CLEAR     25  18  74 S13       30.19F WCI  13
FARIBAULT      CLEAR     25  19  80 S7        30.20F WCI  17
$$

...ELSEWHERE IN MINNESOTA...


CITY           SKY/WX    TMP DP  RH WIND       PRES   REMARKS
MINNEAPOLIS    PTCLDY    27  19  72 S8        30.19F WCI  19
INTNL FALLS    CLOUDY    14   9  80 SW3       30.10F
DULUTH         CLOUDY    17   7  64 SW7       30.12F WCI   8
RED WING       CLEAR     19  12  73 SE3       30.21F
REDWOOD FALLS  CLEAR     25  22  88 S6        30.15F WCI  18
MANKATO        CLEAR     27  19  74 S7        30.19F WCI  19
WORTHINGTON    CLEAR     30  25  80 SW20      30.15F WCI  18
FAIRMONT       CLEAR     28  21  74 S9        30.18F WCI  20
$$

...SOUTHWEST WISCONSIN...


CITY           SKY/WX    TMP DP  RH WIND       PRES   REMARKS
LA CROSSE      CLOUDY    25  12  58 S10       30.28S WCI  15
PRAIRIE DU CHI MOCLDY    20  10  66 CALM      30.31F
BOSCOBEL       CLOUDY    20  13  74 CALM      30.31F
LONE ROCK      NOT AVBL
PLATTEVILLE    CLOUDY    23  17  77 S8        30.31F WCI  13
FORT MC COY    MOCLDY    20   9  62 SW3       30.27F
VIROQUA        CLOUDY    22  13  67 S6        30.25F WCI  14
WIS DELLS      NOT AVBL
$$

...ELSEWHERE IN WISCONSIN...


CITY           SKY/WX    TMP DP  RH WIND       PRES   REMARKS
MILWAUKEE      PTCLDY    21  10  62 SW10      30.34F WCI  10
MADISON        PTCLDY    19   9  65 S5        30.32F WCI  12
GREEN BAY      PTCLDY    19  12  74 CALM      30.31S
EAU CLAIRE     NOT AVBL
BLACK RVR FLS  CLOUDY    13   7  76 CALM      30.25F
MEDFORD        CLOUDY    13   5  69 S7        30.21F WCI   3
WAUSAU         CLOUDY    15   5  64 S7        30.22F WCI   5
WIS RAPIDS     CLOUDY    14   3  61 CALM      30.28R
MARSHFIELD     CLOUDY    15   6  67 CALM      30.24F
RICE LAKE      MOCLDY    15   7  71 SE5       30.23F WCI   7
$$

...NORTHEAST IOWA...


CITY           SKY/WX    TMP DP  RH WIND       PRES   REMARKS
DECORAH        MOCLDY    23  12  63 VRB5      30.27R WCI  17
MASON CITY     CLEAR     22  17  81 S7        30.26R WCI  13
CHARLES CITY   CLEAR     23  16  74 S12       30.26F WCI  12
OELWEIN        CLEAR     21  16  79 S10       30.28F WCI  10
$$

...ELSEWHERE IN IOWA...


CITY           SKY/WX    TMP DP  RH WIND       PRES   REMARKS
DES MOINES     MOCLDY    28  15  58 S7        30.30F WCI  21
IOWA CITY      CLEAR     22  17  81 CALM      30.36S
FORT DODGE     CLEAR     28  18  64 S10       30.25F WCI  19
$$

...NORTHERN ILLINOIS...


CITY           SKY/WX    TMP DP  RH WIND       PRES   REMARKS
CHICAGO-OHARE  PTCLDY    21  13  71 SW3       30.37F
CHICAGO-MIDWAY CLEAR     24  14  65 SW5       30.39F WCI  18
MOLINE         PTCLDY    22  16  78 CALM      30.36F
ROCKFORD       PTCLDY    18  12  77 S5        30.37F WCI  11
PEORIA         CLEAR     25  17  72 S3        30.40F
$$

NOTE: "FAIR" INDICATES FEW OR NO CLOUDS BELOW 12,000 FEET WITH NO
SIGNIFICANT WEATHER AND/OR OBSTRUCTIONS TO VISIBILITY. WIND
SPEEDS ARE IN MILES-PER-HOUR.



USA.gov is the U.S. government's official web portal to all federal, state and local government web resources and services.